[[[{"header":{"parameterUnit":"kt","parameterCategory":2,"dx":1,"dy":1,"la1":30.253999710083008,"la2":30.299108505249023,"lo1":-89.0895004272461,"lo2":-89.04439544677734,"nx":28,"ny":28,"refTime":"2022-10-15T21:00:00:Z","depth":0,"parameterNumber":1,"parameterNumberName":"U-component_of_WINDS"},"data":[2.9755,2.9779,2.979,2.9823,2.9839,2.9864,2.9876,2.9894,2.991,2.9941,2.9961,2.9975,2.9996,3.0023,3.0046,3.0051,3.006,3.0061,3.0067,3.0052,3.0051,3.005,3.0044,3.0063,3.0063,3.0081,3.0081,3.0082,2.9746,2.9762,2.9782,2.9809,2.9827,2.9834,2.9856,2.987,2.9892,2.9913,2.9932,2.9961,2.9984,3.0005,3.003,3.0042,3.0046,3.0048,3.0047,3.005,3.0035,3.0029,3.0045,3.0045,3.0045,3.0045,3.0045,3.0045,2.9732,2.9746,2.9769,2.9791,2.9808,2.9826,2.9841,2.9857,2.9877,2.9904,2.9913,2.9938,2.996,2.9995,3.0009,3.0029,3.0029,3.0034,3.0035,3.0036,3.0036,3.0009,3.0034,3.0034,3.0034,3.0034,3.0034,0,2.9726,2.9734,2.9754,2.9777,2.9794,2.9813,2.9832,2.9842,2.9862,2.9878,2.9901,2.9917,2.9947,2.9971,2.9996,3.0009,3.0016,3.0018,3.0022,3.0017,3.0011,3.0015,2.9989,3.0017,3.0017,3.0017,3.0017,3.0017,2.9713,2.9727,2.9755,2.9768,2.9781,2.98,2.9814,2.9831,2.9845,2.9871,2.9883,2.9906,2.9926,2.9962,2.998,3.0002,3.0006,3.0015,3.0009,3.0005,3.0006,3.0005,3.0007,3.0016,3.0016,3.0016,3.0016,0,2.9705,2.9722,2.9747,2.9773,2.978,2.9795,2.9817,2.9831,2.9845,2.9866,2.9872,2.9893,2.9916,2.9932,2.9961,2.9969,2.9994,2.9997,2.9987,2.9989,2.9999,2.9998,3.0029,3.0034,3.0015,3.0015,3.0015,0,2.97,2.9718,2.9742,2.9756,2.9777,2.9792,2.9813,2.9826,2.9844,2.9861,2.9872,2.9887,2.9905,2.9924,2.9935,2.9959,2.9964,2.9972,2.9974,2.997,2.9969,2.9977,2.9976,2.9979,2.9979,2.9979,2.9979,0,2.9686,2.9718,2.9741,2.9751,2.978,2.979,2.9802,2.9823,2.9836,2.9855,2.9864,2.9886,2.9897,2.9915,2.9929,2.9924,2.9958,2.9954,2.9965,2.9965,2.997,2.997,2.9994,2.9979,2.9979,2.9979,2.9979,0,2.9684,2.9703,2.9732,2.9757,2.9764,2.9779,2.9801,2.9817,2.9837,2.9845,2.9861,2.9869,2.989,2.9885,2.9915,2.9905,2.9916,2.9925,2.9926,2.9928,2.9922,2.9933,2.9955,2.9958,2.9932,2.9932,2.9931,0,2.9663,2.9696,2.9709,2.9736,2.9754,2.9764,2.9781,2.9798,2.9809,2.9826,2.984,2.9858,2.9858,2.9866,2.9879,2.9893,2.9906,2.9892,2.9916,2.9917,2.991,2.9931,2.993,2.9949,2.9926,2.9927,2.9927,0,2.9648,2.9681,2.9685,2.9697,2.9721,2.9735,2.9754,2.9776,2.9787,2.9804,2.982,2.9847,2.9848,2.986,2.9869,2.9881,2.9898,2.988,2.9881,2.9883,2.9925,2.9924,2.9927,2.9901,2.9901,2.9902,2.9923,0,2.9642,2.966,2.9671,2.9696,2.9709,2.9726,2.9742,2.9754,2.976,2.9772,2.9796,2.9812,2.9834,2.9841,2.9847,2.9869,2.9868,2.9868,2.9864,2.9877,2.9885,2.9888,2.9852,2.9852,2.9851,2.9851,0,0,2.9618,2.9643,2.9655,2.9673,2.9685,2.9694,2.9711,2.9723,2.9748,2.9756,2.9754,2.9793,2.9806,2.9833,2.9839,2.9847,2.9852,2.9846,2.9871,2.9873,2.9875,2.9882,2.9885,2.9851,2.9851,2.9851,2.9851,0,2.9619,2.9632,2.9648,2.9661,2.9681,2.9692,2.9696,2.9717,2.9725,2.9747,2.9754,2.9769,2.9799,2.9813,2.9823,2.9844,2.9847,2.9849,2.9856,2.987,2.9872,2.9874,2.9882,2.9884,2.9851,2.9851,2.9851,0,2.9607,2.9622,2.9631,2.9657,2.967,2.9687,2.9687,2.9704,2.9717,2.9724,2.9746,2.9757,2.9775,2.9798,2.9809,2.9807,2.9842,2.9833,2.9834,2.9835,2.9849,2.9851,2.9854,2.9824,2.9824,2.9824,0,0,2.9605,2.9621,2.9641,2.9658,2.9666,2.9682,2.9691,2.9698,2.9715,2.9721,2.9735,2.9751,2.9768,2.9779,2.9796,2.9819,2.9824,2.9829,2.983,2.9831,2.9833,2.9847,2.985,2.9823,2.9823,2.9823,0,0,2.9604,2.9628,2.9632,2.9653,2.9668,2.9689,2.9699,2.9704,2.972,2.9719,2.9731,2.9736,2.9758,2.9768,2.9758,2.9795,2.979,2.9793,2.9787,2.9789,2.979,2.9787,2.9759,0,0,0,0,0,2.9612,2.9626,2.9628,2.9634,2.9666,2.9688,2.9692,2.9702,2.9699,2.9707,2.972,2.9722,2.9765,2.9757,2.9763,2.9773,2.9816,2.9817,2.9818,2.9816,2.9818,2.982,0,0,0,0,0,0,2.9614,2.9621,2.9628,2.9649,2.9656,2.9688,2.9685,2.9688,2.9699,2.9699,2.972,2.9723,2.9731,2.9755,2.976,2.9769,2.9757,2.9816,2.9817,2.9818,2.9817,2.9818,2.982,0,0,0,0,0,2.9616,2.9621,2.9669,2.9649,2.9655,2.9672,2.9684,2.9687,2.9695,2.9714,2.9717,2.9702,2.9731,2.9736,2.9758,2.9767,2.9754,2.9756,2.9817,2.9818,2.9818,2.9818,0,0,0,0,0,0,2.9617,2.9624,2.9671,2.9673,2.9644,2.9671,2.9675,2.9686,2.9709,2.9713,2.9697,2.9696,2.9732,2.9735,2.9739,2.9765,2.9752,2.9753,2.9754,2.9817,2.9818,2.9819,0,0,0,0,0,0,2.9621,2.9626,2.9672,2.9665,2.9667,2.9669,2.9673,2.9693,2.971,2.9691,2.9692,2.9696,2.9726,2.9735,2.9737,2.9768,2.9749,2.9751,2.9752,2.9753,2.9818,2.9819,0,0,0,0,0,0,2.9623,2.9627,2.9665,2.9666,2.9667,2.9694,2.9687,2.9719,2.9704,2.969,2.9703,2.9702,2.9726,2.9729,2.9737,2.9766,2.9767,2.975,2.9751,2.9752,2.9752,0,0,0,0,0,0,0,2.9625,2.9595,2.9657,2.9666,2.9668,2.9695,2.9695,2.9696,2.9704,2.9703,2.9703,2.9702,2.974,2.9742,2.9744,2.9764,0,0,2.9749,2.975,0,0,0,0,0,0,0,0,2.9593,2.9594,2.9657,2.9658,2.9658,2.9695,2.9695,2.9696,2.9704,2.9703,2.9703,2.9703,2.974,2.9742,2.9743,0,0,0,0,0,0,0,0,0,0,0,0,0,0,0,2.9657,2.9658,0,2.9695,2.9695,2.9696,2.9704,2.9703,2.9703,2.9703,2.9741,2.9742,2.9743,0,0,0,0,0,0,0,0,0,0,0,0,0,0,0,0,0,0,0,0,0,0,0,0,0,0,0,0,0,0,0,0,0,0,0,0,0,0,0,0,0,0,0,0,0,0,0,0,0,0,0,0,0,0,0,0,0,0,0,0,0,0,0,0,0,0,0,0,0]}],[{"header":{"parameterUnit":"kt","parameterCategory":2,"dx":1,"dy":1,"la1":30.253999710083008,"la2":30.299108505249023,"lo1":-89.0895004272461,"lo2":-89.04439544677734,"nx":28,"ny":28,"refTime":"2022-10-15T21:00:00:Z","depth":0,"parameterNumber":2,"parameterNumberName":"V-component_of_WINDS"},"data":[1.2107,1.2129,1.2114,1.213,1.212,1.2127,1.2125,1.212,1.2113,1.2117,1.2117,1.2104,1.209,1.2083,1.208,1.2074,1.2073,1.2087,1.2077,1.2027,1.2019,1.2012,1.2006,1.2088,1.2088,1.2129,1.2129,1.213,1.2058,1.2049,1.2056,1.2053,1.2056,1.2032,1.2027,1.2031,1.2039,1.2031,1.2032,1.2035,1.2036,1.2017,1.2014,1.2019,1.2007,1.2019,1.2017,1.2014,1.1961,1.1955,1.2028,1.2028,1.2027,1.2027,1.2027,1.2027,1.1965,1.198,1.1972,1.1979,1.1974,1.1972,1.1983,1.1969,1.1975,1.1975,1.1959,1.1967,1.1956,1.1949,1.1944,1.1946,1.1932,1.194,1.1942,1.1943,1.1945,1.1877,1.1946,1.1946,1.1946,1.1946,1.1945,0,1.1893,1.1881,1.1889,1.1892,1.1897,1.1899,1.1898,1.1905,1.1877,1.1884,1.1891,1.1893,1.1895,1.1899,1.1895,1.1889,1.1865,1.1863,1.1868,1.1874,1.1876,1.187,1.178,1.1862,1.1861,1.1861,1.186,1.186,1.1794,1.1816,1.1804,1.1811,1.1809,1.1822,1.1827,1.1802,1.1808,1.1803,1.1817,1.1822,1.1826,1.1839,1.1823,1.1825,1.1814,1.1845,1.1815,1.1816,1.1809,1.1807,1.1805,1.1852,1.1853,1.1854,1.1855,0,1.1737,1.1721,1.1752,1.1741,1.1738,1.1761,1.1749,1.1764,1.1752,1.177,1.1773,1.1754,1.1762,1.1742,1.175,1.1738,1.1765,1.1757,1.1766,1.1762,1.1784,1.1781,1.1873,1.1881,1.18,1.1801,1.1801,0,1.1645,1.1677,1.1649,1.1669,1.1701,1.1678,1.1709,1.1703,1.1699,1.1713,1.1686,1.17,1.1675,1.1684,1.1669,1.1689,1.1692,1.1684,1.1679,1.1685,1.1685,1.1687,1.1682,1.1674,1.1674,1.1673,1.1673,0,1.1557,1.1584,1.1616,1.1619,1.1614,1.1628,1.1626,1.1624,1.1631,1.1636,1.1638,1.1647,1.1651,1.1655,1.1636,1.1615,1.1663,1.163,1.1653,1.1654,1.1666,1.1665,1.1751,1.1672,1.1672,1.1672,1.1672,0,1.1481,1.149,1.1543,1.1535,1.1543,1.1567,1.1573,1.159,1.1589,1.1582,1.1587,1.1568,1.1591,1.1557,1.1584,1.1562,1.1565,1.1561,1.1562,1.1563,1.1526,1.1573,1.1659,1.1666,1.156,1.1559,1.1558,0,1.1379,1.1432,1.1415,1.1466,1.1488,1.1455,1.148,1.1483,1.1477,1.1491,1.1483,1.1503,1.1476,1.1479,1.1495,1.1488,1.1517,1.1484,1.1498,1.1498,1.1494,1.1574,1.1591,1.1642,1.1546,1.1548,1.1548,0,1.1301,1.13,1.1311,1.1313,1.1319,1.1339,1.1369,1.1384,1.1394,1.1406,1.1426,1.1456,1.1434,1.1443,1.1432,1.1449,1.1496,1.1425,1.1425,1.1434,1.1542,1.1555,1.1565,1.1483,1.1484,1.1485,1.1539,0,1.1177,1.1206,1.1238,1.1252,1.1266,1.1302,1.1289,1.1305,1.1291,1.1286,1.132,1.1325,1.1343,1.1352,1.1342,1.1391,1.138,1.136,1.1328,1.1382,1.1399,1.1406,1.1302,1.1301,1.13,1.13,0,0,1.1082,1.1125,1.1111,1.1143,1.1154,1.1125,1.1163,1.1171,1.119,1.1196,1.1178,1.1222,1.1229,1.1272,1.1288,1.1299,1.1304,1.1289,1.1357,1.1364,1.137,1.1388,1.1396,1.1298,1.1298,1.1298,1.1297,0,1.1035,1.1047,1.1088,1.1095,1.1107,1.1102,1.1111,1.1119,1.1118,1.1158,1.1133,1.1154,1.1196,1.1202,1.1211,1.1283,1.1264,1.129,1.133,1.1349,1.1357,1.1364,1.1383,1.1391,1.1295,1.1295,1.1296,0,1.0952,1.0959,1.0979,1.101,1.1019,1.1046,1.1008,1.1042,1.106,1.1032,1.1072,1.1074,1.1085,1.1132,1.1153,1.1138,1.1226,1.1201,1.1206,1.1208,1.1226,1.1235,1.1243,1.1135,1.1134,1.1134,0,0,1.0913,1.0943,1.0947,1.1,1.1007,1.1002,1.1018,1.1008,1.1021,1.1027,1.1031,1.1042,1.1064,1.108,1.1102,1.1158,1.1156,1.1181,1.1189,1.1195,1.1201,1.122,1.123,1.1132,1.1132,1.1132,0,0,1.0895,1.0901,1.0888,1.0949,1.0962,1.0969,1.1001,1.0984,1.1005,1.1,1.0986,1.0989,1.1034,1.1039,1.1013,1.109,1.1058,1.1065,1.1086,1.1095,1.1103,1.11,1.0977,0,0,0,0,0,1.0843,1.09,1.0887,1.0896,1.094,1.0976,1.0981,1.0972,1.0947,1.0971,1.0971,1.0953,1.102,1.0997,1.1006,1.1035,1.1106,1.1111,1.1115,1.1155,1.1165,1.1173,0,0,0,0,0,0,1.0847,1.0859,1.0885,1.0896,1.0906,1.0974,1.0929,1.0928,1.0944,1.094,1.0953,1.0953,1.0946,1.0992,1.1,1.1028,1.0974,1.1108,1.1112,1.1115,1.1158,1.1167,1.1174,0,0,0,0,0,1.085,1.0859,1.0932,1.0895,1.0904,1.0904,1.0927,1.0926,1.0938,1.0941,1.0941,1.093,1.0947,1.0953,1.0997,1.1025,1.0969,1.0972,1.111,1.1113,1.1116,1.1162,0,0,0,0,0,0,1.0852,1.0858,1.0933,1.0935,1.0875,1.09,1.0904,1.0924,1.0939,1.0939,1.0917,1.0914,1.0948,1.0953,1.0957,1.1024,1.0964,1.0967,1.0969,1.1113,1.1115,1.1117,0,0,0,0,0,0,1.0852,1.086,1.0934,1.0909,1.0908,1.0896,1.09,1.0938,1.0939,1.0914,1.0911,1.0915,1.0941,1.0953,1.0956,1.1016,1.0961,1.0964,1.0966,1.0967,1.1115,1.1117,0,0,0,0,0,0,1.0855,1.0861,1.0909,1.0908,1.0907,1.0929,1.093,1.0974,1.0918,1.0913,1.0913,1.0911,1.0942,1.0945,1.0956,1.1015,1.1016,1.0961,1.0963,1.0964,1.0965,0,0,0,0,0,0,0,1.0857,1.082,1.0921,1.0907,1.0906,1.0954,1.0954,1.0955,1.0918,1.0916,1.0914,1.0912,1.0944,1.0947,1.095,1.1013,0,0,1.096,1.0962,0,0,0,0,0,0,0,0,1.0817,1.0819,1.0921,1.0921,1.0922,1.0954,1.0954,1.0955,1.0918,1.0916,1.0914,1.0912,1.0945,1.0947,1.095,0,0,0,0,0,0,0,0,0,0,0,0,0,0,0,1.0921,1.0921,0,1.0954,1.0954,1.0955,1.0917,1.0916,1.0914,1.0913,1.0946,1.0948,1.095,0,0,0,0,0,0,0,0,0,0,0,0,0,0,0,0,0,0,0,0,0,0,0,0,0,0,0,0,0,0,0,0,0,0,0,0,0,0,0,0,0,0,0,0,0,0,0,0,0,0,0,0,0,0,0,0,0,0,0,0,0,0,0,0,0,0,0,0,0]}]]]